Location: Demre
(36.2444°N, 29.9850°E)
Time: 04:55:07
(UTC+00:00)

SL-24 R/B - RUBIN 2 - Pass Details

Date: 11 March 2026
Orbit: 603 x 984 km, 64.6° (Epoch: 21 April)

Event Time Altitude Azimuth Distance (km) Brightness Sun altitude
Rises 17:35:04 0° 204° (SSW) 3,257 7.4 -19.2°
Reaches altitude 10° 17:37:35 10° 203° (SSW) 2,270 6.6 -19.7°
Maximum altitude 17:42:43 74° 119° (ESE) 726 3.6 -20.7°
Enters shadow 17:45:20 27° 38° (NE) 1,297 4.9 -21.2°
